• En España
  • Lista de países
  • Para 7 días
  • Temperatura del agua
  • Mapa Satelital
  • El tiempo en el mapa
  • Informadores
  • user-avatar
    Iniciar sesión

    Tiempo cada hora Linz

    Hoy, 16 Diciembre, Sábado

    Tiempo Temperatura Precipitaciones Viento Presión Humedad
    00:00 +2°C° 0 mm 1 mps 723 mmHg 90%
    01:00 +2°C° 0 mm 1 mps 723 mmHg 90%
    02:00 +2°C° 0 mm 1 mps 723 mmHg 91%
    03:00 +2°C° 0 mm 1 mps 723 mmHg 92%
    04:00 +1°C° 0 mm 1 mps 723 mmHg 92%
    05:00 +1°C° 0 mm 1 mps 723 mmHg 92%
    06:00 +1°C° 0 mm 1 mps 723 mmHg 92%
    07:00 +2°C° 0 mm 1 mps 724 mmHg 92%
    08:00 +2°C° 0 mm 1 mps 724 mmHg 90%
    09:00 +3°C° 0 mm 1 mps 725 mmHg 88%
    10:00 +4°C° 0 mm 1 mps 726 mmHg 86%
    11:00 +3°C° 0,1 mm 2 mps 726 mmHg 84%
    12:00 +4°C° 0,1 mm 2 mps 726 mmHg 82%
    13:00 +4°C° 0,1 mm 2 mps 727 mmHg 81%
    14:00 +4°C° 0,2 mm 2 mps 727 mmHg 84%
    15:00 +3°C° 0,2 mm 2 mps 727 mmHg 87%
    16:00 +3°C° 0,2 mm 2 mps 728 mmHg 90%
    17:00 +2°C° 0,2 mm 2 mps 729 mmHg 92%
    18:00 +2°C° 0,2 mm 2 mps 729 mmHg 93%
    19:00 +1°C° 0,2 mm 2 mps 730 mmHg 94%
    20:00 +1°C° 0,1 mm 2 mps 731 mmHg 94%
    21:00 +1°C° 0,1 mm 2 mps 731 mmHg 94%
    22:00 -1°C° 0,1 mm 2 mps 732 mmHg 94%
    23:00 -1°C° 0,1 mm 2 mps 732 mmHg 93%

    Mañana, 17 Diciembre, Domingo

    Tiempo Temperatura Precipitaciones Viento Presión Humedad
    00:00 -1°C° 0,1 mm 3 mps 733 mmHg 93%
    01:00 0°C° 0,1 mm 3 mps 733 mmHg 92%
    02:00 -1°C° 0,1 mm 3 mps 733 mmHg 92%
    03:00 -1°C° 0,1 mm 3 mps 734 mmHg 92%
    04:00 -1°C° 0,1 mm 3 mps 734 mmHg 92%
    05:00 -1°C° 0,1 mm 3 mps 734 mmHg 91%
    06:00 -1°C° 0,1 mm 3 mps 734 mmHg 90%
    07:00 0°C° 0,1 mm 3 mps 735 mmHg 89%
    08:00 0°C° 0,2 mm 3 mps 735 mmHg 88%
    09:00 -1°C° 0,2 mm 4 mps 735 mmHg 87%
    10:00 -1°C° 0,2 mm 4 mps 736 mmHg 85%
    11:00 -1°C° 0,2 mm 4 mps 736 mmHg 84%
    12:00 0°C° 0,2 mm 4 mps 736 mmHg 84%
    13:00 0°C° 0,2 mm 4 mps 736 mmHg 83%
    14:00 0°C° 0,3 mm 4 mps 736 mmHg 84%
    15:00 0°C° 0,3 mm 3 mps 736 mmHg 86%
    16:00 0°C° 0,3 mm 3 mps 737 mmHg 88%
    17:00 0°C° 0,2 mm 3 mps 737 mmHg 88%
    18:00 0°C° 0,2 mm 3 mps 738 mmHg 89%
    19:00 -1°C° 0,2 mm 3 mps 738 mmHg 90%
    20:00 -2°C° 0,3 mm 4 mps 739 mmHg 90%
    21:00 -2°C° 0,3 mm 4 mps 739 mmHg 90%
    22:00 -2°C° 0,3 mm 4 mps 740 mmHg 90%
    23:00 -2°C° 0,4 mm 4 mps 740 mmHg 90%

    Pasado mañana, 18 Diciembre, Lunes

    Tiempo Temperatura Precipitaciones Viento Presión Humedad
    00:00 -2°C° 0,4 mm 4 mps 740 mmHg 90%
    01:00 -2°C° 0,4 mm 4 mps 740 mmHg 90%
    02:00 -1°C° 0,2 mm 3 mps 740 mmHg 91%
    03:00 -2°C° 0,2 mm 3 mps 740 mmHg 91%
    04:00 -2°C° 0,2 mm 3 mps 740 mmHg 91%
    05:00 -2°C° 0 mm 3 mps 740 mmHg 90%
    06:00 -2°C° 0 mm 2 mps 740 mmHg 90%
    07:00 -2°C° 0 mm 2 mps 740 mmHg 89%
    08:00 -2°C° 0 mm 2 mps 740 mmHg 87%
    09:00 -1°C° 0 mm 2 mps 740 mmHg 85%
    10:00 -1°C° 0 mm 2 mps 739 mmHg 83%
    11:00 +1°C° 0,1 mm 1 mps 739 mmHg 82%
    12:00 +2°C° 0,1 mm 1 mps 738 mmHg 82%
    13:00 +2°C° 0,1 mm 1 mps 738 mmHg 81%
    14:00 +2°C° 0,1 mm 1 mps 738 mmHg 84%
    15:00 +1°C° 0,1 mm 1 mps 738 mmHg 87%
    16:00 0°C° 0,1 mm 0 mps 738 mmHg 90%
    17:00 0°C° 0,1 mm 0 mps 738 mmHg 91%
    18:00 0°C° 0,1 mm 0 mps 739 mmHg 92%
    19:00 0°C° 0,1 mm 0 mps 739 mmHg 93%
    20:00 -1°C° 0,1 mm 0 mps 740 mmHg 93%
    21:00 -1°C° 0,1 mm 0 mps 741 mmHg 94%
    22:00 -1°C° 0,1 mm 0 mps 741 mmHg 94%
    23:00 -1°C° 0,1 mm 0 mps 741 mmHg 94%

    19 Diciembre, Martes

    Tiempo Temperatura Precipitaciones Viento Presión Humedad
    00:00 +1°C° 0,1 mm 1 mps 742 mmHg 95%
    01:00 +1°C° 0,1 mm 1 mps 742 mmHg 95%
    02:00 +1°C° 0,2 mm 1 mps 742 mmHg 95%
    03:00 +1°C° 0,2 mm 1 mps 742 mmHg 95%
    04:00 +1°C° 0,2 mm 1 mps 743 mmHg 96%
    05:00 +1°C° 0,3 mm 1 mps 743 mmHg 96%
    06:00 +1°C° 0,3 mm 2 mps 743 mmHg 96%
    07:00 +1°C° 0,3 mm 2 mps 744 mmHg 96%
    08:00 +1°C° 0,4 mm 2 mps 744 mmHg 95%
    09:00 +1°C° 0,4 mm 2 mps 745 mmHg 95%
    10:00 +2°C° 0,4 mm 2 mps 745 mmHg 94%
    11:00 +2°C° 0,2 mm 2 mps 745 mmHg 94%
    12:00 +1°C° 0,2 mm 3 mps 745 mmHg 94%
    13:00 +1°C° 0,2 mm 3 mps 745 mmHg 93%
    14:00 +1°C° 0 mm 3 mps 745 mmHg 93%
    15:00 +1°C° 0 mm 3 mps 745 mmHg 93%
    16:00 +1°C° 0 mm 3 mps 745 mmHg 94%
    17:00 0°C° 0 mm 3 mps 745 mmHg 94%
    18:00 0°C° 0 mm 3 mps 746 mmHg 94%
    19:00 0°C° 0 mm 3 mps 746 mmHg 94%
    20:00 0°C° 0,1 mm 3 mps 746 mmHg 94%
    21:00 0°C° 0,1 mm 3 mps 747 mmHg 94%
    22:00 0°C° 0,1 mm 3 mps 747 mmHg 93%
    23:00 0°C° 0,4 mm 3 mps 747 mmHg 93%

    20 Diciembre, Miércoles

    Tiempo Temperatura Precipitaciones Viento Presión Humedad
    00:00 0°C° 0,4 mm 3 mps 746 mmHg 93%
    01:00 -1°C° 0,4 mm 4 mps 746 mmHg 93%
    02:00 -1°C° 0,7 mm 4 mps 746 mmHg 93%
    03:00 -1°C° 0,7 mm 4 mps 745 mmHg 93%
    04:00 -1°C° 0,7 mm 4 mps 745 mmHg 93%
    05:00 -1°C° 0,8 mm 5 mps 745 mmHg 93%
    06:00 -1°C° 0,8 mm 5 mps 745 mmHg 92%
    07:00 -1°C° 0,8 mm 5 mps 745 mmHg 92%
    08:00 0°C° 0,6 mm 5 mps 745 mmHg 92%
    09:00 0°C° 0,6 mm 5 mps 745 mmHg 91%
    10:00 0°C° 0,6 mm 5 mps 745 mmHg 91%
    11:00 0°C° 0,7 mm 5 mps 744 mmHg 92%
    12:00 +1°C° 0,7 mm 5 mps 744 mmHg 93%
    13:00 +1°C° 0,7 mm 5 mps 744 mmHg 93%
    14:00 +1°C° 0,6 mm 5 mps 744 mmHg 94%
    15:00 +1°C° 0,6 mm 5 mps 744 mmHg 94%
    16:00 +1°C° 0,6 mm 5 mps 744 mmHg 95%
    17:00 +1°C° 0,8 mm 4 mps 744 mmHg 96%
    18:00 +1°C° 0,8 mm 4 mps 744 mmHg 96%
    19:00 +1°C° 0,8 mm 4 mps 745 mmHg 97%
    20:00 +2°C° 1 mm 3 mps 745 mmHg 97%
    21:00 +2°C° 1 mm 3 mps 745 mmHg 97%
    22:00 +2°C° 1 mm 3 mps 745 mmHg 98%
    23:00 +3°C° 0,8 mm 3 mps 745 mmHg 98%

    21 Diciembre, Jueves

    Tiempo Temperatura Precipitaciones Viento Presión Humedad
    00:00 +3°C° 0,8 mm 4 mps 745 mmHg 98%
    01:00 +3°C° 0,8 mm 4 mps 745 mmHg 98%
    02:00 +3°C° 1,2 mm 4 mps 745 mmHg 98%
    03:00 +3°C° 1,2 mm 4 mps 745 mmHg 98%
    04:00 +3°C° 1,2 mm 4 mps 745 mmHg 98%
    05:00 +3°C° 0,9 mm 3 mps 745 mmHg 98%
    06:00 +3°C° 0,9 mm 3 mps 746 mmHg 98%
    07:00 +3°C° 0,9 mm 3 mps 746 mmHg 98%
    08:00 +4°C° 0,5 mm 3 mps 746 mmHg 98%
    09:00 +4°C° 0,5 mm 3 mps 746 mmHg 98%
    10:00 +4°C° 0,5 mm 3 mps 746 mmHg 98%
    11:00 +4°C° 0,4 mm 3 mps 746 mmHg 98%
    12:00 +4°C° 0,4 mm 3 mps 745 mmHg 98%
    13:00 +4°C° 0,4 mm 3 mps 745 mmHg 98%
    14:00 +4°C° 0,4 mm 3 mps 745 mmHg 97%
    15:00 +4°C° 0,4 mm 3 mps 745 mmHg 97%
    16:00 +4°C° 0,4 mm 3 mps 745 mmHg 97%
    17:00 +4°C° 0,1 mm 3 mps 745 mmHg 97%
    18:00 +4°C° 0,1 mm 3 mps 745 mmHg 97%
    19:00 +4°C° 0,1 mm 3 mps 745 mmHg 96%
    20:00 +4°C° 0,1 mm 4 mps 745 mmHg 96%
    21:00 +4°C° 0 mm 4 mps 745 mmHg 95%
    22:00 +4°C° 0 mm 4 mps 745 mmHg 95%
    23:00 +4°C° 0,1 mm 4 mps 744 mmHg 95%
    Mostrar más